Location: Unspecified
(50.7693°N, 0.0000°E)
Time: 21:10:12
(UTC+00:00)

SR - Pass Details

Date: 26 June 2019
Orbit: 574 x 881 km, 66.7° (Epoch: 22 October)

Event Time Altitude Azimuth Distance (km) Brightness Sun altitude
Rises 06:41:01 0° 303° (WNW) 2,844 ? 23.8°
Reaches altitude 10° 06:45:04 10° 340° (NNW) 1,998 ? 24.4°
Maximum altitude 06:46:18 11° 356° (N) 1,955 ? 24.6°
Drops below altitude 10° 06:47:32 10° 12° (NNE) 2,039 ? 24.8°
Sets 06:51:51 0° 49° (NE) 3,037 ? 25.5°
